Cloud_Cover
1 41 15 100 3 0 25 9 24 28 26 50 38 37 44 25 18 3 0 0 0 0 0 0 0 0 0 0 0 0 0 0 0 0 0 0 54 48 66 96 24 95 91 94 68 100 97
12 10 85 55 100 29 96 8 99 100 100 100 75 42 5 0 22 12 0 0 0 0 0 0 0 0 0 0 0 0 0 0 0 0 0 0 0 6 89 35 87 100 96 96 100 100 74
100 100 100 100 70 47 43 90 100 92 96 100 45 47 0 5 29 16 0 0 0 0 0 0 0 0 0 0 0 0 0 0 0 0 0 0 0 0 5 83 22 100 72 42 37 92 11
100 100 100 100 32 54 100 100 100 81 100 100 100 58 1 17 20 1 3 0 0 0 0 0 0 0 0 0 0 0 0 0 0 0 0 0 0 0 5 68 57 100 6 0 0 0 48
100 100 100 100 100 100 100 100 100 100 100 100 100 8 1 0 0 0 0 0 0 0 0 0 0 0 0 0 0 0 0 0 0 0 0 0 0 0 2 68 93 100 63 30 0 0 2
100 100 100 100 100 100 100 100 100 100 100 100 73 0 0 0 0 1 8 0 0 0 0 0 0 0 0 0 0 0 0 0 0 0 0 0 0 0 5 10 41 40 17 58 0 0 0
100 100 100 100 100 100 100 100 100 100 100 100 2 0 0 0 0 0 11 0 0 0 0 0 0 0 0 0 0 0 0 0 0 0 0 0 0 0 16 10 65 2 5 63 2 0 0
100 100 100 100 100 100 100 93 97 100 100 96 24 0 0 0 1 15 51 0 0 0 0 0 0 0 0 0 0 0 0 0 0 0 0 0 0 4 4 0 0 0 0 72 4 0 0
99 90 100 100 100 100 100 0 69 100 100 91 4 0 0 0 9 21 0 0 0 0 0 0 0 0 0 0 0 0 0 0 0 0 0 0 2 4 0 0 0 0 0 0 0 0 0
100 100 100 100 95 100 32 0 91 100 100 97 0 0 0 79 3 0 0 0 0 0 0 0 0 0 0 0 0 0 0 0 0 0 0 0 0 0 0 0 0 0 0 0 0 0 0
100 100 100 100 100 100 0 0 100 100 100 100 16 0 0 60 0 0 0 0 0 0 0 0 0 0 0 0 0 0 0 0 0 0 0 0 0 0 0 0 0 0 0 0 0 0 0
100 100 100 100 100 100 0 0 100 100 100 100 100 98 75 0 1 0 0 0 0 0 0 0 0 0 0 0 0 0 0 0 0 0 0 0 0 0 0 0 0 0 0 0 0 2 2
100 100 100 100 100 100 32 0 100 100 100 100 100 52 96 0 0 0 0 0 0 0 0 0 0 0 0 0 0 0 0 0 0 0 0 0 0 0 0 0 0 0 0 0 8 27 15
98 100 100 100 100 100 100 98 78 38 75 73 20 82 0 0 0 0 0 0 0 0 0 0 0 0 0 0 0 0 0 0 0 0 0 0 0 0 0 0 0 0 0 0 25 18 81
41 100 100 64 0 16 52 82 0 0 1 10 41 0 0 0 0 0 0 0 0 0 0 0 0 0 0 0 0 0 0 0 0 0 0 0 0 0 0 0 0 0 0 0 68 16 8
0 13 99 72 0 0 0 0 0 0 17 42 1 0 0 0 0 0 0 0 0 0 0 0 0 0 0 0 0 0 0 0 0 0 0 0 0 0 0 0 0 0 0 0 0 31 7
0 0 0 2 0 0 0 0 0 5 20 30 0 0 0 0 0 0 0 0 0 0 0 0 0 0 0 0 0 0 0 0 0 0 0 0 0 0 0 0 0 0 0 0 0 30 45
0 0 0 0 5 12 0 0 0 15 20 0 0 0 0 0 0 0 0 0 0 0 0 0 0 0 0 0 0 0 0 0 0 0 0 0 0 0 0 0 0 0 0 0 0 0 24
0 0 4 16 5 52 62 0 0 52 100 72 0 0 0 0 0 0 0 0 0 0 0 0 0 0 0 0 0 0 0 0 0 0 0 0 0 0 0 0 0 0 0 0 0 0 5
100 16 77 27 5 64 95 48 2 100 87 20 0 0 0 0 0 0 0 0 0 0 0 0 0 0 0 0 0 0 0 0 0 0 0 0 0 0 0 1 0 0 0 0 0 0 0
100 99 100 46 5 16 86 100 63 100 4 52 0 0 19 4 0 0 0 0 0 0 0 0 0 0 0 0 0 0 0 0 0 0 0 0 0 0 1 9 54 75 1 0 0 0 0
100 100 100 100 5 5 83 100 100 91 3 0 0 0 5 0 3 0 0 0 0 0 0 0 0 0 0 0 0 0 0 0 0 0 0 0 0 0 0 5 90 46 92 0 0 0 0
100 100 100 22 2 4 60 100 100 100 10 0 0 0 0 0 4 1 0 0 0 0 0 0 0 0 0 0 0 0 0 0 0 0 0 0 0 0 0 1 77 8 91 6 0 0 0
100 96 88 7 2 6 100 100 100 100 100 90 0 0 0 3 0 1 2 0 0 0 0 0 0 0 0 0 0 0 0 0 3 0 0 0 0 0 0 0 1 5 14 1 0 0 0
25 78 49 0 0 1 100 100 100 100 100 98 0 0 0 0 0 0 0 0 0 0 0 0 0 0 0 0 0 0 0 0 2 0 0 0 0 0 0 0 0 0 2 5 5 41 72
0 0 0 0 0 8 100 100 100 100 100 95 88 0 0 0 0 0 0 0 0 1 0 0 0 0 0 0 0 0 2 5 5 29 21 8 4 2 0 0 1 0 8 18 63 96 63
23 0 0 0 0 0 60 87 100 100 100 92 43 6 0 0 0 0 5 1 5 0 0 0 0 0 0 0 0 0 0 1 92 92 5 78 59 5 5 5 4 0 7 2 10 2 2
100 9 0 29 70 0 99 100 100 100 100 100 99 5 3 17 2 0 1 0 4 0 0 2 0 0 0 0 0 0 0 1 92 76 28 94 89 52 2 0 29 2 1 4 0 0 0
100 54 0 0 5 5 89 100 100 95 100 100 100 51 5 1 1 2 4 5 1 0 0 0 6 0 0 0 0 0 0 0 73 100 100 4 59 87 100 100 78 60 59 2 0 0 0